Location: Unspecified
(0.0000°N, 0.0000°E)
Time: 06:01:15
(UTC+01:00)

ISS - All Passes

Search period start: 29 November 2014 00:00
Search period end: 09 December 2014 00:00
Orbit: 407 x 417 km, 51.6° (Epoch: 29 November)

Date Brightness Start Highest point End Pass type
(mag) Time Alt. Az. Time Alt. Az. Time Alt. Az.
29 Nov - 08:15:59 10° NNW 08:19:13 55° NE 08:22:29 10° SE daylight
29 Nov - 19:51:22 10° SSW 19:54:24 33° SE 19:57:25 10° ENE visible
30 Nov - 07:26:48 10° N 07:29:23 21° NE 07:31:59 10° ESE daylight
30 Nov - 09:04:39 10° WSW 09:05:50 12° SW 09:07:01 10° SSW daylight
30 Nov - 19:02:40 10° SSE 19:04:32 14° SE 19:06:23 10° E daylight
30 Nov - 20:38:42 10° W 20:40:58 17° NW 20:43:13 10° N visible
01 Dec - 08:13:06 10° WNW 08:15:56 27° SW 08:18:47 10° S daylight
01 Dec - 19:47:55 10° SW 19:51:04 42° NW 19:54:12 10° NNE visible
02 Dec - 07:22:45 10° NW 07:26:01 73° SW 07:29:19 10° SSE daylight
02 Dec - 18:57:52 10° SSW 19:01:09 65° SE 19:04:25 10° NE daylight
03 Dec - 06:33:01 10° NNW 06:36:06 38° NE 06:39:12 10° SE daylight
03 Dec - 18:08:26 10° S 18:11:12 24° SE 18:13:56 10° ENE daylight
04 Dec - 05:44:02 10° NNE 05:46:07 16° NE 05:48:12 10° E visible
04 Dec - 07:20:29 10° W 07:22:32 16° SW 07:24:36 10° SSW daylight
04 Dec - 17:20:33 10° SE 17:21:10 10° SE 17:21:48 10° ESE daylight
04 Dec - 18:54:54 10° WSW 18:57:37 23° NW 19:00:19 10° N daylight
05 Dec - 06:29:27 10° NW 06:32:31 37° SW 06:35:36 10° SSE daylight
05 Dec - 18:04:18 10° SW 18:07:35 63° NW 18:10:51 10° NNE daylight
06 Dec - 05:39:13 10° NNW 05:42:29 75° NE 05:45:46 10° SE visible
06 Dec - 17:14:21 10° SSW 17:17:32 44° SE 17:20:41 10° NE daylight
07 Dec - 04:49:35 10° N 04:52:24 27° NE 04:55:15 10° ESE visible
07 Dec - 16:25:06 10° S 16:27:25 18° SE 16:29:44 10° E daylight
07 Dec - 18:02:02 10° W 18:03:50 14° NW 18:05:38 10° NNW daylight
08 Dec - 04:01:10 10° NE 04:02:17 11° NE 04:03:24 10° ENE visible
08 Dec - 05:36:07 10° WNW 05:38:42 21° SW 05:41:17 10° S visible
08 Dec - 17:10:41 10° WSW 17:13:42 33° NW 17:16:43 10° NNE daylight
